FW6654 Weather Reports


Display with metric or nautical units.
time (UTC)temp
F
wind
direction
speed
MPH
gust
MPH
rain 1hr
in
rain 24hr
in
rain mn
in
humidity
%
barometer
mb
20260505171120 81 188 1.0 4.0 0.00 0.00 0.00 42 1006.2
20260505171025 77 246 9.0 15.0 0.00 0.00 0.00 40 1004.8
20260505170522 78 251 14.0 16.0 0.00 0.00 0.00 40 1005.0
20260505170122 81 193 3.0 6.0 0.00 0.00 0.00 42 1006.5
20260505170018 77 164 7.0 17.0 0.00 0.00 0.00 41 1004.7
20260505165513 77 265 9.0 15.0 0.00 0.00 0.00 40 1005.1
20260505165121 80 237 3.0 8.0 0.00 0.00 0.00 43 1006.5
20260505165009 77 257 4.0 18.0 0.00 0.00 0.00 40 1005.2
20260505164505 77 273 8.0 13.0 0.00 0.00 0.00 40 1004.8
20260505164122 79 157 3.0 6.0 0.00 0.00 0.00 44 1006.8
20260505164004 76 254 6.0 14.0 0.00 0.00 0.00 42 1005.0
20260505163502 75 266 7.0 15.0 0.00 0.00 0.00 42 1005.4
20260505163221 80 229 1.0 3.0 0.00 0.00 0.00 43 1007.2
20260505163002 75 250 9.0 16.0 0.00 0.00 0.00 42 1005.2
20260505162456 77 253 7.0 12.0 0.00 0.00 0.00 40 1005.5
20260505162222 80 202 5.0 10.0 0.00 0.00 0.00 42 1007.2
20260505161953 77 261 4.0 9.0 0.00 0.00 0.00 42 1005.6
20260505161450 76 322 6.0 11.0 0.00 0.00 0.00 41 1005.6
20260505161236 80 130 2.0 4.0 0.00 0.00 0.00 42 1007.5
20260505160948 76 243 7.0 8.0 0.00 0.00 0.00 41 1005.7
20260505160446 75 235 3.0 15.0 0.00 0.00 0.00 43 1006.0
20260505160322 80 320 2.0 5.0 0.00 0.00 0.00 42 1007.5
20260505153322 78 221 2.0 7.0 0.00 0.00 0.00 44 1007.9
20260505152922 76 234 4.0 10.0 0.00 0.00 0.00 41 1006.1
20260505152419 75 284 2.0 6.0 0.00 0.00 0.00 41 1006.1
20260505151919 75 248 7.0 9.0 0.00 0.00 0.00 41 1006.3
20260505151415 75 272 3.0 10.0 0.00 0.00 0.00 41 1006.3
20260505151323 77 170 2.0 7.0 0.00 0.00 0.00 45 1007.9
20260505150913 74 131 6.0 10.0 0.00 0.00 0.00 41 1006.4
20260505150405 74 324 3.0 6.0 0.00 0.00 0.00 43 1006.2
20260505150322 77 191 3.0 5.0 0.00 0.00 0.00 45 1008.2
20260505140334 71 205 2.0 5.0 0.00 0.00 0.00 43 1006.3
20260505130258 69 172 3.0 7.0 0.00 0.00 0.00 44 1006.8
20260505124748 68 294 4.0 7.0 0.00 0.00 0.00 46 1007.2
20260505124420 69 196 2.0 4.0 0.00 0.00 0.00 57 1008.9
20260505124245 68 275 4.0 5.0 0.00 0.00 0.00 46 1006.9
20260505123740 68 228 2.0 8.0 0.00 0.00 0.00 46 1007.1
20260505123519 68 157 0.0 2.0 0.00 0.00 0.00 58 1008.9
20260505123237 67 247 4.0 8.0 0.00 0.00 0.00 47 1007.0
20260505122734 67 256 3.0 6.0 0.00 0.00 0.00 47 1007.1
20260505122231 66 234 3.0 8.0 0.00 0.00 0.00 47 1006.9
20260505121728 66 284 4.0 5.0 0.00 0.00 0.00 48 1007.0
20260505121519 65 112 0.0 1.0 0.00 0.00 0.00 68 1008.9
20260505121224 66 298 6.0 7.0 0.00 0.00 0.00 48 1007.2
20260505120721 65 272 4.0 11.0 0.00 0.00 0.00 48 1007.0
20260505120422 63 196 0.0 2.0 0.00 0.00 0.00 74 1009.3
20260505120217 65 258 2.0 6.0 0.00 0.00 0.00 49 1007.3
20260505115715 65 227 2.0 12.0 0.00 0.00 0.00 48 1007.1
20260505115522 61 76 0.0 3.0 0.00 0.00 0.00 83 1009.6
20260505115214 64 281 4.0 6.0 0.00 0.00 0.00 50 1007.3
20260505114711 63 218 3.0 7.0 0.00 0.00 0.00 51 1007.2
20260505114620 58 163 1.0 3.0 0.00 0.00 0.00 88 1009.6
20260505114521 58 159 0.0 2.0 0.00 0.00 0.00 89 1009.6
20260505114206 63 326 1.0 5.0 0.00 0.00 0.00 53 1007.5
20260505113703 62 188 6.0 9.0 0.00 0.00 0.00 52 1007.6
20260505113620 54 180 0.0 1.0 0.00 0.00 0.00 92 1009.6
20260505113200 62 257 2.0 3.0 0.00 0.00 0.00 54 1007.3
20260505112656 61 138 2.0 4.0 0.00 0.00 0.00 54 1007.3
20260505112622 51 22 0.0 0.0 0.00 0.00 0.00 93 1009.6
20260505112154 61 255 2.0 5.0 0.00 0.00 0.00 54 1007.3
20260505111721 49 341 1.0 4.0 0.00 0.00 0.00 93 1009.3
20260505111653 61 302 0.0 5.0 0.00 0.00 0.00 54 1007.3
20260505111149 61 211 4.0 6.0 0.00 0.00 0.00 53 1007.1
20260505110820 46 337 0.0 0.0 0.00 0.00 0.00 93 1008.9
20260505110646 62 284 3.0 9.0 0.00 0.00 0.00 53 1006.9
20260505110143 62 232 5.0 12.0 0.00 0.00 0.00 52 1006.9
20260505102119 58 241 4.0 8.0 0.00 0.00 0.00 58 1007.1
20260505102019 41 22 0.0 0.0 0.00 0.00 0.00 94 1008.9
20260505101618 58 244 6.0 10.0 0.00 0.00 0.00 57 1007.2
20260505101113 58 277 4.0 6.0 0.00 0.00 0.00 59 1007.1
20260505100610 58 226 5.0 8.0 0.00 0.00 0.00 58 1007.2
20260505100107 57 267 4.0 6.0 0.00 0.00 0.00 59 1007.0
20260505100023 41 348 0.0 3.0 0.00 0.00 0.00 94 1008.9
20260505095603 57 225 2.0 8.0 0.00 0.00 0.00 60 1007.1
20260505095100 57 258 4.0 11.0 0.00 0.00 0.00 60 1007.2
20260505094556 56 248 4.0 6.0 0.00 0.00 0.00 61 1007.2
20260505094052 56 273 2.0 3.0 0.00 0.00 0.00 62 1007.3
20260505094037 41 247 0.0 0.0 0.00 0.00 0.00 94 1008.6
20260505093549 56 239 3.0 4.0 0.00 0.00 0.00 61 1007.2
20260505093046 56 248 2.0 4.0 0.00 0.00 0.00 61 1006.9
20260505093021 41 247 0.0 0.0 0.00 0.00 0.00 93 1008.6
20260505092544 56 238 6.0 6.0 0.00 0.00 0.00 61 1006.9
20260505092042 56 262 1.0 5.0 0.00 0.00 0.00 60 1006.9
20260505092022 40 248 0.0 1.0 0.00 0.00 0.00 93 1008.6
20260505091538 57 243 7.0 7.0 0.00 0.00 0.00 60 1007.2
20260505091037 57 261 6.0 6.0 0.00 0.00 0.00 60 1007.1
20260505091021 40 22 0.0 2.0 0.00 0.00 0.00 93 1008.6
20260505090534 57 260 4.0 8.0 0.00 0.00 0.00 59 1007.1
20260505090032 57 232 4.0 9.0 0.00 0.00 0.00 59 1006.9
20260505085530 57 182 7.0 10.0 0.00 0.00 0.00 59 1007.1
20260505085028 57 247 2.0 6.0 0.00 0.00 0.00 59 1007.1
20260505085021 39 22 0.0 0.0 0.00 0.00 0.00 93 1008.8
20260505084526 57 278 3.0 9.0 0.00 0.00 0.00 59 1007.1
20260505084119 39 22 0.0 0.0 0.00 0.00 0.00 93 1008.9
20260505084023 57 188 6.0 7.0 0.00 0.00 0.00 58 1007.0
20260505083520 57 253 5.0 12.0 0.00 0.00 0.00 58 1007.2
20260505083121 39 22 0.0 2.0 0.00 0.00 0.00 93 1008.9
20260505083017 57 241 6.0 12.0 0.00 0.00 0.00 58 1007.3
20260505082512 57 228 4.0 16.0 0.00 0.00 0.00 58 1007.0
20260505082221 38 22 0.0 2.0 0.00 0.00 0.00 93 1008.9
20260505082009 57 267 4.0 6.0 0.00 0.00 0.00 59 1007.2
20260505081506 57 223 4.0 9.0 0.00 0.00 0.00 58 1007.2
20260505081222 38 292 0.0 0.0 0.00 0.00 0.00 93 1008.9
20260505081003 58 291 8.0 9.0 0.00 0.00 0.00 58 1007.5
20260505080459 57 236 6.0 11.0 0.00 0.00 0.00 58 1007.3
20260505080319 38 292 0.0 0.0 0.00 0.00 0.00 93 1008.9
20260505075955 57 253 4.0 6.0 0.00 0.00 0.00 59 1007.2
20260505075451 57 268 3.0 5.0 0.00 0.00 0.00 60 1007.3
20260505075321 37 292 0.0 0.0 0.00 0.00 0.00 92 1008.9
20260505074949 57 231 5.0 8.0 0.00 0.00 0.00 59 1007.3
20260505074446 57 253 6.0 6.0 0.00 0.00 0.00 59 1007.3
20260505074321 37 292 0.0 0.0 0.00 0.00 0.00 92 1008.9
20260505073943 57 250 3.0 9.0 0.00 0.00 0.00 59 1007.2
20260505073441 57 266 6.0 6.0 0.00 0.00 0.00 61 1007.1
20260505073322 38 292 0.0 0.0 0.00 0.00 0.00 93 1008.9
20260505072938 57 284 3.0 7.0 0.00 0.00 0.00 60 1007.2
20260505072434 57 265 2.0 7.0 0.00 0.00 0.00 61 1007.3
20260505072420 38 292 0.0 0.0 0.00 0.00 0.00 93 1008.9
20260505071930 57 233 4.0 9.0 0.00 0.00 0.00 60 1007.1
20260505071519 37 292 0.0 0.0 0.00 0.00 0.00 92 1008.9
20260505071426 57 257 2.0 8.0 0.00 0.00 0.00 61 1007.2
20260505070925 56 258 4.0 9.0 0.00 0.00 0.00 61 1007.2
20260505070522 38 292 0.0 0.0 0.00 0.00 0.00 93 1008.9
20260505070421 56 252 5.0 9.0 0.00 0.00 0.00 61 1007.2
20260505065916 56 256 4.0 8.0 0.00 0.00 0.00 62 1007.0
20260505065520 38 292 0.0 0.0 0.00 0.00 0.00 93 1008.9
20260505065413 56 259 3.0 6.0 0.00 0.00 0.00 63 1007.1
20260505064910 56 272 2.0 4.0 0.00 0.00 0.00 63 1007.2
20260505064407 55 237 4.0 7.0 0.00 0.00 0.00 64 1007.2
20260505063906 55 246 4.0 8.0 0.00 0.00 0.00 63 1007.2
20260505063521 38 292 0.0 0.0 0.00 0.00 0.00 92 1008.9
20260505063402 55 227 2.0 9.0 0.00 0.00 0.00 64 1007.2
20260505062858 54 268 4.0 9.0 0.00 0.00 0.00 66 1007.1
20260505062520 38 292 0.0 0.0 0.00 0.00 0.00 92 1008.9
20260505062355 53 280 3.0 5.0 0.00 0.00 0.00 68 1007.3
20260505061852 53 256 4.0 8.0 0.00 0.00 0.00 69 1007.0
20260505061522 39 292 0.0 0.0 0.00 0.00 0.00 93 1008.9
20260505061351 52 256 2.0 4.0 0.00 0.00 0.00 71 1007.2
20260505060848 51 245 1.0 3.0 0.00 0.00 0.00 74 1007.0
20260505060344 50 174 1.0 2.0 0.00 0.00 0.00 76 1007.2
20260505055840 50 256 0.0 2.0 0.00 0.00 0.00 77 1007.1
20260505055620 38 292 0.0 0.0 0.00 0.00 0.00 92 1008.9
20260505055336 50 135 0.0 3.0 0.00 0.00 0.00 76 1007.1
20260505054834 49 290 2.0 2.0 0.00 0.00 0.00 78 1006.9
20260505054621 39 292 0.0 0.0 0.00 0.00 0.00 93 1008.9
20260505054331 48 66 0.0 2.0 0.00 0.00 0.00 81 1007.2
20260505053829 46 76 0.0 1.0 0.00 0.00 0.00 86 1007.1
20260505053621 40 292 0.0 0.0 0.00 0.00 0.00 93 1008.9
20260505053326 46 86 1.0 2.0 0.00 0.00 0.00 86 1007.1
20260505052822 46 66 0.0 2.0 0.00 0.00 0.00 86 1007.2
20260505052620 40 292 0.0 0.0 0.00 0.00 0.00 93 1008.9
20260505052319 46 89 2.0 2.0 0.00 0.00 0.00 87 1007.0
20260505051817 46 105 1.0 2.0 0.00 0.00 0.00 87 1007.0
20260505051621 41 292 0.0 0.0 0.00 0.00 0.00 93 1008.9
20260505051314 46 99 2.0 2.0 0.00 0.00 0.00 86 1007.0
20260505050812 46 76 0.0 3.0 0.00 0.00 0.00 84 1007.1
20260505050310 47 100 2.0 2.0 0.00 0.00 0.00 82 1007.1
20260505041740 48 85 1.0 2.0 0.00 0.00 0.00 80 1006.9
20260505041620 42 292 0.0 0.0 0.00 0.00 0.00 92 1008.6
20260505041237 49 87 0.0 2.0 0.00 0.00 0.00 79 1006.9
20260505040734 49 116 0.0 2.0 0.00 0.00 0.00 79 1007.0
20260505040232 48 299 0.0 2.0 0.00 0.00 0.00 81 1006.9
20260505035729 48 245 0.0 2.0 0.00 0.00 0.00 83 1006.6
20260505035624 42 292 0.0 0.0 0.00 0.00 0.00 92 1008.6
20260505035224 47 112 1.0 2.0 0.00 0.00 0.00 86 1006.7
20260505034722 46 115 0.0 2.0 0.00 0.00 0.00 89 1006.8
20260505034624 43 292 0.0 0.0 0.00 0.00 0.00 92 1008.6
20260505034218 46 269 0.0 0.0 0.00 0.00 0.00 88 1006.8
20260505033715 46 92 2.0 2.0 0.00 0.00 0.00 87 1006.7
20260505033625 43 292 0.0 0.0 0.00 0.00 0.00 92 1008.6
20260505033213 47 128 2.0 2.0 0.00 0.00 0.00 87 1006.8
20260505032711 47 82 2.0 2.0 0.00 0.00 0.00 87 1006.8
20260505032623 43 292 0.0 0.0 0.00 0.00 0.00 92 1008.6
20260505032206 47 78 2.0 2.0 0.00 0.00 0.00 86 1006.9
20260505031704 47 87 2.0 2.0 0.00 0.00 0.00 87 1006.7
20260505031621 44 292 0.0 0.0 0.00 0.00 0.00 91 1008.8
20260505031200 46 92 1.0 2.0 0.00 0.00 0.00 88 1006.7
20260505030657 46 113 1.0 2.0 0.00 0.00 0.00 88 1006.9
20260505030623 44 292 0.0 0.0 0.00 0.00 0.00 91 1008.9
20260505030153 46 109 2.0 2.0 0.00 0.00 0.00 87 1007.1
20260505025722 44 292 0.0 0.0 0.00 0.00 0.00 91 1008.9
20260505025649 46 91 1.0 2.0 0.00 0.00 0.00 88 1007.0
20260505025148 46 93 2.0 2.0 0.00 0.00 0.00 89 1006.8
20260505024723 45 292 0.0 0.0 0.00 0.00 0.00 91 1008.9
20260505024645 46 80 2.0 2.0 0.00 0.00 0.00 89 1006.9
20260505024142 46 74 1.0 2.0 0.00 0.00 0.00 89 1006.9
20260505023723 45 292 0.0 0.0 0.00 0.00 0.00 91 1008.9
20260505023639 46 83 2.0 2.0 0.00 0.00 0.00 89 1007.1
20260505023137 46 82 2.0 2.0 0.00 0.00 0.00 88 1007.3
20260505022634 47 73 1.0 2.0 0.00 0.00 0.00 88 1007.0
20260505022131 47 78 1.0 2.0 0.00 0.00 0.00 87 1007.2
20260505021627 47 84 1.0 2.0 0.00 0.00 0.00 87 1007.1
20260505021124 48 110 1.0 1.0 0.00 0.00 0.00 86 1007.0
20260505020825 47 292 0.0 0.0 0.00 0.00 0.00 90 1008.9
20260505020620 48 59 0.0 0.0 0.00 0.00 0.00 85 1007.3
20260505020116 48 137 1.0 2.0 0.00 0.00 0.00 85 1007.1
20260505015923 47 292 0.0 0.0 0.00 0.00 0.00 90 1008.9
20260505015824 46 292 0.0 0.0 0.00 0.00 0.00 89 1008.9
20260505015613 48 153 2.0 2.0 0.00 0.00 0.00 86 1007.2
20260505015110 49 135 0.0 0.0 0.00 0.00 0.00 84 1007.0
20260505014823 47 292 0.0 0.0 0.00 0.00 0.00 90 1008.9
20260505014607 49 89 1.0 2.0 0.00 0.00 0.00 84 1007.2
20260505014104 49 96 1.0 2.0 0.00 0.00 0.00 84 1007.0
20260505013921 47 292 0.0 0.0 0.00 0.00 0.00 90 1009.0
20260505013601 49 26 2.0 2.0 0.00 0.00 0.00 83 1007.1
20260505013058 50 113 0.0 2.0 0.00 0.00 0.00 81 1006.9
20260505012556 49 78 2.0 2.0 0.00 0.00 0.00 81 1006.6
20260505012053 49 102 1.0 2.0 0.00 0.00 0.00 82 1007.0
20260505011924 48 292 0.0 0.0 0.00 0.00 0.00 89 1008.9
20260505011548 49 72 2.0 2.0 0.00 0.00 0.00 82 1006.7
20260505011046 49 80 2.0 2.0 0.00 0.00 0.00 83 1006.9
20260505010922 48 292 0.0 0.0 0.00 0.00 0.00 88 1008.9
20260505010541 49 93 0.0 2.0 0.00 0.00 0.00 82 1006.8
20260505010038 50 119 0.0 2.0 0.00 0.00 0.00 82 1006.7
20260505005923 49 292 0.0 0.0 0.00 0.00 0.00 86 1008.8
20260505005534 50 91 0.0 1.0 0.00 0.00 0.00 82 1006.7
20260505005032 51 144 0.0 2.0 0.00 0.00 0.00 80 1006.7
20260505004923 49 292 0.0 0.0 0.00 0.00 0.00 86 1008.6
20260505004529 51 150 2.0 2.0 0.00 0.00 0.00 76 1006.6
20260505004026 52 80 0.0 2.0 0.00 0.00 0.00 76 1006.3
20260505003922 50 292 0.0 0.0 0.00 0.00 0.00 85 1008.2
20260505003523 52 77 1.0 1.0 0.00 0.00 0.00 76 1006.1
20260505003020 53 66 0.0 1.0 0.00 0.00 0.00 74 1006.1
20260505002923 51 292 0.0 0.0 0.00 0.00 0.00 84 1008.2
20260505002515 53 89 0.0 2.0 0.00 0.00 0.00 73 1006.1
20260505002014 53 93 2.0 2.0 0.00 0.00 0.00 71 1006.0
20260505001511 53 104 2.0 2.0 0.00 0.00 0.00 71 1006.1
20260505001023 51 292 0.0 0.0 0.00 0.00 0.00 79 1007.9
20260505001008 53 100 1.0 2.0 0.00 0.00 0.00 71 1005.8
20260505000923 51 292 0.0 0.0 0.00 0.00 0.00 78 1007.9
20260505000822 52 292 0.0 0.0 0.00 0.00 0.00 78 1007.9
20260505000506 54 103 0.0 1.0 0.00 0.00 0.00 71 1005.7
20260505000003 54 89 1.0 2.0 0.00 0.00 0.00 69 1005.8
20260504235823 53 292 0.0 0.0 0.00 0.00 0.00 78 1007.9
20260504235500 55 99 1.0 2.0 0.00 0.00 0.00 69 1005.8
20260504234956 55 87 1.0 2.0 0.00 0.00 0.00 70 1005.8
20260504234823 54 292 0.0 0.0 0.00 0.00 0.00 78 1007.9
20260504234453 55 92 2.0 2.0 0.00 0.00 0.00 68 1005.9
20260504233950 55 88 2.0 2.0 0.00 0.00 0.00 69 1005.6
20260504233923 55 292 0.0 0.0 0.00 0.00 0.00 74 1007.9
20260504233445 56 101 1.0 1.0 0.00 0.00 0.00 68 1005.6
20260504233021 56 292 0.0 0.0 0.00 0.00 0.00 69 1007.6
20260504232943 56 84 1.0 2.0 0.00 0.00 0.00 67 1005.7
20260504232440 57 111 0.0 1.0 0.00 0.00 0.00 67 1005.6
20260504232023 57 292 0.0 0.0 0.00 0.00 0.00 66 1007.5
20260504231937 57 107 0.0 1.0 0.00 0.00 0.00 65 1005.5
20260504231433 58 89 0.0 2.0 0.00 0.00 0.00 64 1005.4
20260504231023 59 292 0.0 0.0 0.00 0.00 0.00 63 1007.5
20260504230929 59 89 0.0 1.0 0.00 0.00 0.00 63 1005.3
20260504230426 60 118 0.0 0.0 0.00 0.00 0.00 62 1005.3
20260504230122 60 292 0.0 0.0 0.00 0.00 0.00 59 1007.3
20260504225926 60 77 0.0 0.0 0.00 0.00 0.00 60 1005.2
20260504225422 61 84 0.0 0.0 0.00 0.00 0.00 54 1005.4
20260504224919 61 0 0.0 1.0 0.00 0.00 0.00 54 1005.3
20260504224415 61 249 0.0 3.0 0.00 0.00 0.00 53 1005.2
20260504224221 61 294 1.0 5.0 0.00 0.00 0.00 55 1007.2
20260504223913 61 354 1.0 2.0 0.00 0.00 0.00 53 1005.2
20260504223408 62 10 2.0 2.0 0.00 0.00 0.00 52 1005.1
20260504223224 62 270 0.0 0.0 0.00 0.00 0.00 54 1007.2
20260504222904 62 308 2.0 2.0 0.00 0.00 0.00 50 1005.1
20260504222402 62 288 0.0 5.0 0.00 0.00 0.00 49 1004.9
20260504222223 62 292 0.0 1.0 0.00 0.00 0.00 54 1007.2
20260504221900 62 249 2.0 4.0 0.00 0.00 0.00 51 1005.1
20260504221356 62 315 2.0 12.0 0.00 0.00 0.00 49 1005.0
20260504221321 62 318 1.0 5.0 0.00 0.00 0.00 54 1007.1
20260504220854 63 243 3.0 4.0 0.00 0.00 0.00 49 1005.0
20260504220350 63 281 3.0 7.0 0.00 0.00 0.00 48 1005.2
20260504215847 63 272 2.0 3.0 0.00 0.00 0.00 51 1005.0
20260504215344 62 335 0.0 5.0 0.00 0.00 0.00 50 1005.0
20260504215324 62 294 1.0 4.0 0.00 0.00 0.00 54 1007.2
20260504214840 62 267 2.0 4.0 0.00 0.00 0.00 50 1005.1
20260504214337 62 236 2.0 4.0 0.00 0.00 0.00 50 1005.1
20260504214321 62 302 3.0 9.0 0.00 0.00 0.00 54 1007.2
20260504213833 62 280 1.0 4.0 0.00 0.00 0.00 50 1005.0
20260504213329 62 295 5.0 5.0 0.00 0.00 0.00 49 1005.1
20260504212827 64 345 4.0 9.0 0.00 0.00 0.00 48 1005.0
20260504212323 64 241 7.0 11.0 0.00 0.00 0.00 47 1004.9
20260504211821 64 245 7.0 8.0 0.00 0.00 0.00 47 1004.8
20260504211316 64 305 3.0 7.0 0.00 0.00 0.00 48 1004.6
20260504210814 65 225 6.0 6.0 0.00 0.00 0.00 45 1004.7
20260504210521 62 325 4.0 8.0 0.00 0.00 0.00 55 1006.8
20260504210422 62 321 3.0 6.0 0.00 0.00 0.00 55 1006.6
20260504210311 64 306 3.0 16.0 0.00 0.00 0.00 48 1004.6
20260504205809 63 257 2.0 13.0 0.00 0.00 0.00 47 1004.8
20260504205521 62 257 2.0 7.0 0.00 0.00 0.00 54 1006.5
20260504205306 63 301 8.0 12.0 0.00 0.00 0.00 49 1004.7
20260504204804 63 335 2.0 10.0 0.00 0.00 0.00 50 1004.8
20260504204523 62 302 5.0 9.0 0.00 0.00 0.00 54 1006.5
20260504204302 63 336 4.0 6.0 0.00 0.00 0.00 50 1004.6
20260504203801 63 321 5.0 10.0 0.00 0.00 0.00 51 1004.7
20260504203524 63 264 2.0 4.0 0.00 0.00 0.00 54 1006.7
20260504203258 64 318 3.0 9.0 0.00 0.00 0.00 48 1004.6
20260504202758 63 296 4.0 10.0 0.00 0.00 0.00 50 1004.5
20260504202256 64 249 4.0 4.0 0.00 0.00 0.00 48 1004.6
20260504201753 62 340 2.0 9.0 0.00 0.00 0.00 51 1004.6
20260504201525 62 215 1.0 4.0 0.00 0.00 0.00 54 1006.8
20260504201250 61 273 8.0 12.0 0.00 0.00 0.00 52 1004.6
20260504200748 61 272 10.0 15.0 0.00 0.00 0.00 51 1004.6
20260504200622 63 302 4.0 10.0 0.00 0.00 0.00 55 1006.5
20260504200243 62 264 5.0 7.0 0.00 0.00 0.00 53 1004.4
20260504195740 63 254 6.0 12.0 0.00 0.00 0.00 49 1004.4
20260504195623 62 212 2.0 7.0 0.00 0.01 0.00 55 1006.5
20260504195236 63 232 7.0 14.0 0.00 0.00 0.00 49 1004.4
20260504194733 64 295 4.0 6.0 0.00 0.00 0.00 48 1004.4
20260504194722 64 315 3.0 7.0 0.00 0.01 0.00 55 1006.2
20260504194229 63 238 10.0 15.0 0.00 0.00 0.00 51 1004.4
20260504193726 62 229 4.0 14.0 0.00 0.00 0.00 51 1004.3
20260504193722 64 352 4.0 13.0 0.00 0.01 0.00 58 1006.4
20260504193223 62 301 9.0 13.0 0.00 0.00 0.00 52 1004.3
20260504192722 62 267 4.0 11.0 0.00 0.01 0.00 59 1006.5
20260504192219 61 259 8.0 9.0 0.00 0.00 0.00 56 1004.4
20260504191723 61 198 2.0 4.0 0.00 0.01 0.00 58 1006.3
20260504191718 61 256 6.0 18.0 0.00 0.00 0.00 55 1004.5
20260504191214 61 288 6.0 21.0 0.00 0.00 0.00 57 1004.3
20260504190723 60 317 3.0 6.0 0.00 0.01 0.00 62 1006.3
20260504190709 62 278 6.0 10.0 0.00 0.00 0.00 57 1004.5
20260504190206 61 272 5.0 13.0 0.00 0.00 0.00 57 1004.5
20260504185821 59 322 2.0 5.0 0.00 0.02 0.00 66 1006.6
20260504185703 61 220 8.0 11.0 0.00 0.00 0.00 57 1004.7
20260504185159 60 244 7.0 12.0 0.00 0.00 0.00 59 1004.7
20260504184655 58 53 2.0 7.0 0.00 0.00 0.00 64 1004.9
20260504184150 57 263 7.0 11.0 0.00 0.00 0.00 63 1005.0
20260504183921 58 259 0.0 3.0 0.00 0.04 0.00 65 1007.2
20260504183647 57 225 3.0 9.0 0.00 0.00 0.00 64 1004.8
20260504183145 58 262 6.0 13.0 0.00 0.00 0.00 63 1004.9
20260504182643 57 257 3.0 9.0 0.00 0.00 0.00 65 1005.0
20260504182140 56 279 5.0 9.0 0.00 0.00 0.00 67 1004.9
20260504181922 57 252 1.0 4.0 0.00 0.06 0.00 66 1007.2
20260504181637 57 259 7.0 8.0 0.00 0.00 0.00 67 1005.1
20260504181135 56 241 5.0 10.0 0.00 0.00 0.00 67 1005.2
20260504180922 57 349 2.0 5.0 0.00 0.07 0.00 66 1007.3
20260504180634 56 221 7.0 11.0 0.00 0.00 0.00 67 1005.1
20260504180132 56 286 7.0 8.0 0.00 0.00 0.00 65 1005.3
20260504175629 56 265 4.0 10.0 0.00 0.00 0.00 67 1005.2
20260504175125 56 298 8.0 13.0 0.00 0.00 0.00 65 1005.3
20260504174923 56 313 1.0 7.0 0.00 0.08 0.00 68 1007.4
20260504174624 56 226 2.0 6.0 0.00 0.00 0.00 66 1005.5
20260504174120 56 243 5.0 8.0 0.00 0.00 0.00 67 1005.3
20260504173922 56 299 1.0 4.0 0.00 0.09 0.00 67 1007.5
20260504173617 55 214 9.0 10.0 0.00 0.00 0.00 66 1005.4
20260504173115 56 253 6.0 7.0 0.00 0.00 0.00 67 1005.5
20260504172611 55 275 3.0 7.0 0.00 0.00 0.00 68 1005.6
20260504172108 55 223 4.0 14.0 0.00 0.00 0.00 67 1005.3
20260504172022 56 314 2.0 6.0 0.00 0.10 0.00 63 1007.4
20260504171604 55 273 4.0 11.0 0.00 0.00 0.00 65 1005.4